SL-19 DEB, 23494

Orbit data source: Space-Track

SL-19 DEB, 23494 is space debris in LEO originally from a launch on Mon, 26 Dec 1994 UTC launched from the Tyuratam Missile And Space Complex (TTMTR). Debris objects in space refer to the collection of defunct objects orbiting the Earth. Examples of debris include non-operational satellites, rocket bodies, and fragments generated from explosions, collisions, or faulty payload assembly.

Loading next visibility...
Identifier
23494, 1994-085S
Orbit
LEO
Country
Flag of CISCIS
Related business
Manufacturer
Unknown
Mission
Spacecraft
Bus & Motor
Unknown
Mass
Unknown
Launch date (UTC)
1994-12-26 (31 years ago)
Launch vehicle
Unknown
Launch site
Tyuratam Missile And Space Complex (TTMTR)
Object type
Payload
Rocket body
Debris
Shape & HBR
Unknown shape, 0.1 m
Radar Cross Section
Small (<0.1 m²)

Expand to show TLE details & history
Last TLE update: 10 hours ago

TLE from 10 hours ago
0 SL-19 DEB
1 23494U 94085S   26062.39172286 -.00005018  00000-0 -80023-1 0  9992
2 23494  64.9362 200.6627 0292341  64.9181 327.4521 11.69224310571676
Epoch: 2026-03-03T09:24Z
TLE epoch observation values (Epoch: 2026-03-03T09:24:04.855Z)
Latitude
27.43343°
Longitude
-87.54895°
Altitude
1,623.923 km
Speed
7.147 km/s
True Right ascension
14h 18m 34s
True Declination
27° 18' 30"
Sunlit
Object was in full shadow at epoch
Visualization orbit readout
Latitude
Unknown
Longitude
Unknown
Altitude
Unknown
Speed
Unknown
Apparent Right ascension
Unknown
Apparent Declination
Unknown
Sunlit
N/A
Visualization observer readout
Local Sidereal Time
23:31:26
Azimuth
Unknown
Elevation
Unknown
Doppler factor
Unknown
Orbital elements
Apogee altitude
2,060.105 km
Perigee altitude
1,580.75 km
Semi-major axis
8,198.564 km
Eccentricity
0.02923
Inclination
64.9362°
RAAN
200.6627°
Arg. of periapsis
64.9181°
True anomaly
325.59292°
Mean anomaly
327.4521°
Eccentric anomaly
326.5283°
Mean motion
2.92372 °/min
Orbital period
123.13 mins
BSTAR
-0.080023
Loading maneuver chart data...
Computing Atmospheric mass density...
Loading historical data...
Loading historical data...
Loading historical data...
Loading historical data...
Loading historical data...
Loading historical data...
Loading historical data...

Documentation

Showing up to 5 results
|